Location: Julian California
(33.0790°N, 116.6010°W)
Time: 05:37:14
(UTC-07:00)

Intelsat 5-1 Rocket - Pass Details

Date: 19 May 2017
Orbit: 311 x 7715 km, 23.9° (Epoch: 22 July)

Event Time Altitude Azimuth Distance (km) Brightness Sun altitude
Rises 20:32:40 0° 268° (W) 5,217 7.8 -10.1°
Reaches altitude 10° 20:38:56 10° 247° (WSW) 2,894 6.0 -11.2°
Maximum altitude 20:41:59 14° 219° (SW) 2,034 4.8 -11.8°
Drops below altitude 10° 20:44:08 10° 188° (S) 1,875 4.3 -12.1°
Enters shadow 20:45:01 - 175° (S) 1,964 4.3 -12.3°
